Location: Canazei
(46.4667°N, 11.7667°E)
Time: 05:04:48
(UTC+00:00)

SL-4 R/B - Pass Details

Date: 21 April 2021
Orbit: 427 x 663 km, 51.6° (Epoch: 10 May)

Event Time Altitude Azimuth Distance (km) Brightness Sun altitude
Exits shadow 02:41:16 11° 285° (WNW) 2,000 4.5 -15.2°
Maximum altitude 02:45:23 35° 222° (SW) 1,072 2.9 -14.6°
Drops below altitude 10° 02:49:41 10° 157° (SSE) 2,046 4.8 -14.0°
Sets 02:52:07 0° 148° (SSE) 2,930 5.7 -13.6°
